Regional Weather Roundup
Issued by NWS

Home | Current Version | Previous Version | Graphics & Text | Print | Product List | Glossary On
Versions: 1 2 3 4 5 6 7 8 9 10 11 12 13 14 15 16 17 18 19 20 21 22 23 24 25 26 27
000
ASUS45 KSLC 282310
RWRUT

UTAH REGIONAL WEATHER ROUNDUP
NATIONAL WEATHER SERVICE SALT LAKE CITY UT
500 PM MDT THU JUL 28 2016

UTZ001>011-023>025-290000-

NORTHERN UTAH

CITY           SKY/WX    TMP DP  RH WIND       PRES   REMARKS
BRIGHAM CITY     N/A     98  26   8 W8        30.04S HX  91
HILL AFB       SUNNY     95  35  12 VRB1      30.09F HX  90
LOGAN          SUNNY     97  36  12 VRB7      30.05F HX  92
OGDEN          SUNNY     97  34  11 VRB5      30.05F HX  91
PROVO AIRPORT  MOSUNNY   99  39  12 NW10      30.05F HX  94
SALT LAKE CITY MOSUNNY  100  34  10 VRB6      30.03F HX  94
VERNAL         SUNNY     96  27   8 NE7       30.05F HX  90
WENDOVER       SUNNY     99  36  11 SE8       30.03F HX  93
HEBER CITY     MOSUNNY   97  28   9 NW6       30.12F HX  91

$$

UTZ012>022-026-027-290000-

SOUTHERN/CENTRAL UTAH

CITY           SKY/WX    TMP DP  RH WIND       PRES   REMARKS
BLANDING       MOSUNNY   96  33  11 W9        30.19F HX  90
BRYCE CANYON   CLOUDY    85  27  12 NE9       30.34R
CEDAR CITY     PTSUNNY   98  30   9 W13       30.12F HX  92
DELTA          SUNNY    102  25   6 N13G20    30.04S HX  95
MILFORD        SUNNY    102  23   6 NE12G22   30.04F HX  95
MOAB/CYNLANDS  MOSUNNY  103  25   6 W16G22    29.97F HX  95
PRICE          MOSUNNY   99  19   5 NW18G31   30.12F HX  92
ST GEORGE      PTCLDY   102  43  13 NW20G48   29.87S HX  98

$$

REGIONAL REPORTS     COLORADO/ARIZONA

CITY           SKY/WX    TMP DP  RH WIND       PRES   REMARKS
CRAIG, CO      SUNNY     91  31  11 NW8       30.16F
GRAND JUNCTION SUNNY    102  24   6 NW12G22   30.00F HX  95
RIFLE          SUNNY     95  22   7 W7        30.06F
MONTROSE       SUNNY     96  27   8 NW7       30.11F HX  90
CORTEZ         SUNNY     95  34  11 N13G18    30.12F HX  90
PAGE, AZ       MOSUNNY  106  30   7 N18G25    29.96F HX  99
GRAND CANYON   CLOUDY    84  43  23 SE10G23   30.25F
KINGMAN        SUNNY    107  46  13 SW14G23   29.93F HX 103
FLAGSTAFF      PTSUNNY   85  39  19 NW7       30.27F

$$

REGIONAL REPORTS    NEVADA/IDAHO/WYOMING

CITY           SKY/WX    TMP DP  RH WIND       PRES   REMARKS
LAS VEGAS, NV  PTSUNNY  113  34   7 CALM      29.75F HX 105
ELY            PTSUNNY   92  25   9 N14       30.19F
ELKO           SUNNY    101  22   6 W14       30.09F HX  94
POCATELLO, ID  SUNNY     95  33  11 W12G20    30.08F HX  90
BURLEY         SUNNY     89  46  22 W14       30.06F
EVANSTON, WY   SUNNY     87  26  11 W21G30    30.28S
ROCK SPRINGS   SUNNY     89  20   8 W22G36    30.19F
KEMMERER         N/A    N/A N/A N/A W21G31    30.28S

$$




USA.gov is the U.S. government's official web portal to all federal, state and local government web resources and services.